Find Kosmos-940

NORAD ID: 10286 Int'l Des: 1977-079 Owner: GUKOSR Country: SU operational
LEOCIRCULAR

Live Position

Loading 3D Globe...

About Kosmos-940

Description loading...

Upcoming Passes

Passes for default location (London). Set your location on the main map for personalized predictions.

Altitude History

Loading altitude history...

Two-Line Element Set

1 10286U 77079B 26105.83846443 -.00000011 00000-0 32061-4 0 9990
2 10286 74.0291 12.5076 0043843 311.4177 115.8513 12.58901849204332
Epoch: Apr 15, 2026 • Age: 12 hours

Current Status

Altitude 1447.5 km
Velocity 7.13 km/s
Sub-Earth Point -15.02°S, 131.99°W
Launch Date Aug 24, 1977
Age 48.6 years
Type other

Technical Details

Classification Payload
Mass 60.00 kg
Dry Mass 60.00 kg
Total Mass 60.00 kg
Length 0.80 m
Diameter 0.80 m
Span 0.80 m
Shape Poly
Manufacturer NPOPM
Bus Type Strela-1 11F625
Phase Status In Orbit
Owner/State GUKOSR/SU

Most Searched